User: anonymous   Login
Location: Hamilton
(37.7830°S, 175.2830°E)
Time: 12:08:13
(UTC+13:00)
Language:

MOS 1 - Orbit

View from above orbital plane
View from above orbital plane
View from above satellite
View from above satellite

Ground track
Ground track

The orbit data is extracted from the following two-line orbital elements,

1 17527U 87018A   19078.60233208 -.00000054  00000-0 -49670-5 0  9997
2 17527  99.2172 112.3288 0007974 335.2152 176.9944 14.02534129639220
Epoch (UTC): 19 March 2019 14:27:21
Eccentricity: 0.0007974
inclination: 99.2172°
perigee height: 879 km
apogee height: 891 km
right ascension of ascending node: 112.3288°
argument of perigee: 335.2152°
revolutions per day: 14.02534129
mean anomaly at epoch: 176.9944°
orbit number at epoch: 63922

The dashed part of the orbit path shows where the satellite is in the earth's shadow,  

DLR